Volver al catálogo

STARLINK-30838

ActivoComunicacionesVLEO
NORAD 58211·PAYLOAD·🇺🇸 United States

Lanzado Nov 3, 2023 desde Cape Canaveral Space Force Station

Loading…

Próximos Pases (próximas 24 horas)

TLE

ActualizadoSource: CelesTrak SupGP

Época: Sep 15, 2026, 02:53 UTC

1 58211C 23170F   26258.12062500  .00004362  00000+0  15799-3 0  2585
2 58211  43.0001 204.2465 0001393 260.6604  59.9898 15.27575098    18

Sigue STARLINK-30838 en tiempo real con AllMySat

Download on the App Store